Location: Unspecified
(0.0000°N, 0.0000°E)
Time: 06:51:27
(UTC+00:00)

Vanguard 1 Rocket - Pass Details

Date: 06 December 2022
Orbit: 651 x 4224 km, 34.3° (Epoch: 04 February)

Event Time Altitude Azimuth Distance (km) Brightness Sun altitude
Rises 22:47:10 0° 231° (SW) 7,811 12.5 -62.6°
Reaches altitude 10° 22:53:13 10° 230° (SW) 6,330 11.9 -63.4°
Enters shadow 23:02:54 34° 225° (SW) 3,749 10.5 -64.5°
